Showing default

GEESAT 1-01, 52785

Orbit data source: Space-Track

GEESAT 1-01, 52785 is a payload satellite owned by GeeSpace (CN) in LEO that was launched on Thu, 02 Jun 2022 UTC via a CHANG ZHENG 2C launch vehicle from the Xichang Space Center, China (XSC). Payload-class satellites include a variety of spacecraft equipped with specific instruments for various scientific and technological missions. These include communications satellites like Starlink; space stations such as the ISS; scientific satellites like the Hubble; Earth observation satellites from companies like Planet Labs, Umbra, and HawkEye 360; GPS; miniature CubeSats for education and research; and military/defense satellites.

Loading next visibility...
Identifier
52785, 2022-058A
Orbit
LEO
Country
Flag of CNCN / PRC
Related business
Manufacturer
GWCG
Mission
Operational Commercial Navigation
Bus & Motor
GPS100, Unknown motor
Mass
130 kg wet, 130 kg dry
Launch date (UTC)
2022-06-02 (4 years ago)
Launch vehicle
CHANG ZHENG 2C
Launch site
Xichang Space Center, China (XSC)
Object type
Payload
Rocket body
Debris
Shape & HBR
Box + 2 Pan, 1.0 m
Radar Cross Section
0.833 m², Medium (>0.1 m² and < 1m²)

Expand to show TLE details & history
Last TLE update: 15 hours ago

TLE from 15 hours ago
0 GEESAT 1-01
1 52785U 22058A   25348.96967662  .00003913  00000-0  35483-3 0  9999
2 52785  49.9940 337.6611 0001809  95.7063 264.4088 14.97329293192563
Epoch: 2025-12-14T23:16Z
TLE epoch observation values (Epoch: 2025-12-14T23:16:20.059Z)
Latitude
0.00001°
Longitude
-95.29743°
Altitude
575.822 km
Speed
7.574 km/s
True Right ascension
22h 30m 38s
True Declination
0° 00' 00"
Sunlit
Object was in daylight at epoch
Visualization orbit readout
Latitude
Unknown
Longitude
Unknown
Altitude
Unknown
Speed
Unknown
Apparent Right ascension
Unknown
Apparent Declination
Unknown
Sunlit
N/A
Visualization observer readout
Local Sidereal Time
13:22:48
Azimuth
Unknown
Elevation
Unknown
Doppler factor
Unknown
Orbital elements
Apogee altitude
577.174 km
Perigee altitude
574.658 km
Semi-major axis
6,954.053 km
Eccentricity
0.00018
Inclination
49.994°
RAAN
337.6611°
Arg. of periapsis
95.7063°
True anomaly
264.38817°
Mean anomaly
264.4088°
Eccentric anomaly
264.39848°
Mean motion
3.74271 °/min
Orbital period
96.19 mins
BSTAR
0.00035483
Loading maneuver chart data...
Computing Atmospheric mass density...
Loading historical data...
Loading historical data...
Loading historical data...
Loading historical data...
Loading historical data...
Loading historical data...
Loading historical data...

Documentation

Showing up to 5 results
|